Regional Weather Roundup
Issued by NWS

Home | Current Version | Previous Version | Graphics & Text | Print | Product List | Glossary On
Versions: 1 2 3 4 5 6 7 8 9 10 11 12 13 14 15 16 17 18 19 20 21 22 23 24 25 26 27 28 29 30 31 32 33 34 35 36 37 38 39 40 41 42 43 44 45 46 47 48 49 50
000
ASUS45 KSLC 090110
RWRUT

UTAH REGIONAL WEATHER ROUNDUP
NATIONAL WEATHER SERVICE SALT LAKE CITY UT
600 PM MST THU DEC 08 2016

UTZ001>011-023>025-090200-

NORTHERN UTAH

CITY           SKY/WX    TMP DP  RH WIND       PRES   REMARKS
BRIGHAM CITY     N/A     22  19  85 N8        30.17F WCI  13
HILL AFB       FLURRIES  23  20  91 N5        30.14R WCI  17
LOGAN          LGT SNOW  20  18  92 CALM      30.17F FOG
OGDEN          CLOUDY    23  21  92 N6        30.15R WCI  16
SALT LAKE CITY CLOUDY    26  22  84 N10       30.15S WCI  16
WENDOVER       CLOUDY    21  16  79 CALM      30.17S
HEBER CITY     CLOUDY    27  23  86 CALM      30.12S

$$

UTZ011>015-024>027-090200-

CENTRAL/NORTHEAST UTAH

CITY           SKY/WX    TMP DP  RH WIND       PRES   REMARKS
PROVO AIRPORT  CLOUDY    30  22  72 CALM      30.18R
MOAB/CANYONLAN CLOUDY    32   5  32 CALM      30.26R
DELTA          CLOUDY    32  10  40 NE5       30.15R WCI  27
PRICE          CLOUDY    24   5  44 N3        30.24R
RICHFIELD      CLOUDY    30  10  43 N5        30.19R WCI  25
ROOSEVELT      CLOUDY    25  18  74 NW5       30.26S WCI  19
VERNAL         CLOUDY    23   4  44 SW3       30.23R

$$

UTZ013>016-019>022-027-090200-

SOUTHERN UTAH

CITY           SKY/WX    TMP DP  RH WIND       PRES   REMARKS
BRYCE CANYON   MOCLDY    23   9  55 CALM      30.23R
CEDAR CITY     MOCLDY    40  22  48 SW7       30.17S
MILFORD        MOCLDY    41  17  38 S21       30.15R
ST GEORGE      CLOUDY    43  12  28 SE6       30.25R
HANKSVILLE     PTCLDY    30   3  31 NE8       30.29S WCI  23
KANAB          PTCLDY    36  21  55 N3        30.26R
BLANDING       PTCLDY    27   6  40 N5        30.34R WCI  22

$$

REGIONAL REPORTS     COLORADO/ARIZONA

CITY           SKY/WX    TMP DP  RH WIND       PRES   REMARKS
CRAIG, CO      CLOUDY    19  12  74 E10       30.19F WCI   7
GRAND JUNCTION CLOUDY    28  10  46 W3        30.27R
RIFLE, CO      NOT AVBL
MONTROSE, CO   CLOUDY    28  10  46 CALM      30.28R
CORTEZ, CO     CLOUDY    29  18  63 CALM      30.28R
COLORADO CITY    N/A     36  23  60 CALM      30.24R
PAGE, AZ       PTCLDY    38   4  24 CALM      30.25R
GRAND CANYON   PTCLDY    33  22  63 CALM      30.26R
KINGMAN, AZ    PTCLDY    47  18  31 SW10      30.22R
FLAGSTAFF, AZ  PTCLDY    32  22  66 NW5       30.27R WCI  27

$$

REGIONAL REPORTS    NEVADA/IDAHO/WYOMING

CITY           SKY/WX    TMP DP  RH WIND       PRES   REMARKS
LAS VEGAS, NV  MOCLDY    51   7  16 CALM      30.22R
ELY, NY        CLOUDY    33  13  43 S5        30.17R WCI  29
ELKO, NV       CLOUDY    28  24  85 W3        30.08S
POCATELLO, ID  LGT SNOW  20  18  92 N3        30.13S
BURLEY, ID     LGT SNOW  20  17  88 NE14      30.09S FOG     WCI   7
FORT BRIDGER,  LGT SNOW   7   3  86 CALM      30.13F
EVANSTON, WY   LGT SNOW  10   4  76 E7        30.07S WCI  -1
ROCK SPRINGS,  LGT SNOW   9   6  88 NW5       30.12S FOG     WCI   1

$$



USA.gov is the U.S. government's official web portal to all federal, state and local government web resources and services.